Regional Weather Roundup
Issued by NWS

Home | Current Version | Previous Version | Text Only | Print | Product List | Glossary On
Versions: 1 2 3 4 5 6 7 8 9 10 11 12 13 14 15 16 17 18 19 20 21 22 23 24 25 26 27 28 29 30 31 32 33 34 35 36 37 38 39 40 41 42 43 44 45 46 47 48 49 50
000
ASUS44 KLUB 311510
RWRTX
WEST TEXAS WEATHER ROUNDUP
NATIONAL WEATHER SERVICE LUBBOCK TX
900 AM CST SAT JAN 31 2015

NOTE: "FAIR" INDICATES FEW OR NO CLOUDS BELOW 12,000 FEET WITH NO
SIGNIFICANT WEATHER AND/OR OBSTRUCTIONS TO VISIBILITY.

TXZ004-006>008-010-012-014-016-OKZ002-311600-
TEXAS PANHANDLE/OKLAHOMA PANHANDLE

CITY           SKY/WX    TMP DP  RH WIND       PRES   REMARKS
AMARILLO       LGT RAIN  33  32  96 S10       30.03S WCI  25
BORGER         LGT RAIN  36  33  89 S7        30.04S FOG     WCI  30
CANADIAN       RAIN      38  37  96 SE5       30.07F WCI  34
DALHART        FOG       35  33  92 S12       29.98F VSB 1/4 WCI  27
DUMAS          CLOUDY    33  32  97 S9        30.00F FOG     WCI  25
GUYMON         CLOUDY    36  34  92 S12       29.99F WCI  28
HEREFORD       DRIZZLE   36  35  98 S8        30.02S WCI  29
PAMPA          RAIN      34  33  96 S10       30.03F WCI  26
PERRYTON         N/A     36  34  94 S13       30.03F WCI  27
$$

TXZ026-029-035-045-048-311600-
SOUTHERN PANHANDLE/SOUTH PLAINS/ROLLING PLAINS

CITY           SKY/WX    TMP DP  RH WIND       PRES   REMARKS
CHILDRESS      LGT RAIN  39  38  96 SE14      30.08F FOG     WCI  31
SEMINOLE       RAIN      40  40  99 SE7       30.00S
LUBBOCK        LGT RAIN  37  36  96 SE8       30.01S WCI  31
PLAINVIEW      LGT RAIN  36  35  96 SE6       30.00F WCI  31
SNYDER         LGT RAIN N/A N/A N/A E10       30.04F
$$

TXZ052-054-060>062-072-078-127-140-154-169-311600-
PERMIAN BASIN/CONCHO VALLEY/BIG COUNTRY/EDWARDS PLATEAU

CITY           SKY/WX    TMP DP  RH WIND       PRES   REMARKS
ABILENE        LGT RAIN  45  40  82 S9        30.08S
BIG SPRING     CLOUDY    45  42  91 E14       30.02S
BRADY          CLOUDY    48  39  71 SE12      30.07F
BROWNWOOD      CLOUDY    48  39  71 SE9       30.11S
JUNCTION       CLOUDY    48  45  89 SE6       30.07F
MIDLAND        CLOUDY    45  44  97 S3        29.99R FOG
ODESSA         CLOUDY    46  43  89 S8        29.99F
SAN ANGELO     RAIN      48  46  93 N3        30.05S FOG
SONORA         LGT RAIN  48  48 100 S5        30.09S
SWEETWATER     CLOUDY    43  43 100 S8        30.09F
WINK           CLOUDY    46  42  86 SE10      29.97R
$$

TXZ055-058-074-075-080-082-311600-
FAR WEST/SOUTHWEST MOUNTAINS/TRANS PECOS

CITY           SKY/WX    TMP DP  RH WIND       PRES   REMARKS
ALPINE         CLOUDY    48  47  98 S8        30.02S
DRYDEN           N/A     48  47  96 SE12      29.99F
EL PASO        CLOUDY    46  42  86 N8        29.91R
FORT STOCKTON  CLOUDY    47  45  93 SE12      29.98F
GUADALUPE PASS FOG       36  36 100 E8        29.96S VSB<1/4 WCI  30
MARFA          CLOUDY    46  45  93 S8        30.00R VSB<1/4
PECOS          CLOUDY    45  44  97 S5        29.98S FOG
PRESIDIO       FOG       49  49  99 N7        29.96R VSB 1/4
$$

TXZ014-016-019-021>030-083-311600
TEXAS TECH WEST TEXAS MESONET/TEXAS PANHANDLE/NORTHERN SOUTH PLAINS

CITY           SKY/WX    TMP DP  RH WIND       PRES   REMARKS
ABERNATHY 5ENE   N/A     36  35  99 SE6       30.03R WCI  31
AMARILLO 9NNE    N/A     34  33  96 S6        30.02F WCI  29
AMARILLO 7SSE    N/A     33  32  98 SE6       30.03S WCI  27
AMHERST 1NE      N/A     34  34  99 E3        30.01F
BOOTLEG 11WNW    N/A     32  32  98 SE8       30.00F WCI  25
CANADIAN 6E      N/A     36  35  99 SE3       30.06F
CAPROCK CYN SP   N/A     35  35  99 CALM      30.06F
CLARENDON 2WSW LGT RAIN  35  34  94 E6        30.05F WCI  30
CLAUDE 12SW      N/A     32  32  99 SE5       30.02F WCI  28
DIMMITT 2NE      N/A     33  32  98 SE5       30.01S WCI  28
FLOYDADA 2NNE  LGT RAIN  35  35  99 E5        30.02S WCI  31
FRIONA 2NE       N/A     33  33  96 SE8       30.01S WCI  27
GOODLETT 3W    LGT RAIN  40  38  93 E10       30.10F WCI  33
HART 3N          N/A     33  33  99 SE5       30.01F WCI  29
HEREFORD 2NW     N/A     34  33  96 SE6       30.01S WCI  29
MCLEAN 1E        N/A     35  34  98 SE9       30.04F WCI  28
MEMPHIS 1NE    LGT RAIN  38  37  97 E3        30.07F
MULESHOE 2SSW    N/A     35  34  99 E3        30.00F
OLTON 6S         N/A     35  34  96 SE3       30.01S
PALO DURO SP     N/A     33  32  97 S5        30.04S WCI  28
PAMPA 2E         N/A     34  33  99 SE10      30.03F WCI  26
PLAINVIEW 1S     N/A     35  35  99 E3        30.01F
SILVERTON 7ESE LGT RAIN  34  33  97 E6        30.04S WCI  29
TULIA 2ENE     LGT RAIN  33  33  99 E7        30.02S WCI  27
TURKEY 2WSW    LGT RAIN  36  36  99 E5        30.05F WCI  32
UMBARGER 3NNE    N/A     33  32  96 S6        30.02S WCI  28
$$

TXZ033>036-039>041-045>048-311600
TEXAS TECH WEST TEXAS MESONET/SOUTH PLAINS

CITY           SKY/WX    TMP DP  RH WIND       PRES   REMARKS
AIKEN 3WSW       N/A     35  35  99 E7        30.03F WCI  29
ANDREWS 2NE      N/A     41  39  94 E6        30.00S
BROWNFIELD 2S    N/A     37  37  99 SE8         N/A  WCI  31
DENVR CTY 7WNW   N/A     37  37  99 E3        29.98F
GAIL 2ESE      LGT RAIN  40  39  96 E6        30.02F
LAMESA 2SE       N/A     38  38  99 E8        30.01F WCI  33
LEVELLAND 4S     N/A     36  35  94 SE5       30.01S WCI  32
LUBBOCK 3WNW     N/A     37  37  99 SE5       30.03R WCI  33
MORTON 1ENE      N/A     35  35  99 E3        30.00F
ODONNELL 1N    LGT RAIN  38  38  97 E9        30.01S WCI  32
PLAINS 3N        N/A     37  37  99 SE6       30.00S WCI  33
RALLS 1SE        N/A     37  37  99 SE10      30.03R WCI  29
REESE CENTER     N/A     36  35  99 SE5       30.02R WCI  32
SEAGRAVES 1SW    N/A     39  38  99 SE5       30.00R
SEMINOLE 2NNE    N/A     40  39  97 SE8       29.99S WCI  34
SLATON 2NE       N/A     36  36  99 E10       30.02S WCI  29
SNYDER 3E      LGT RAIN  41  40  99 E9        30.03F
SUNDOWN 8SW      N/A     37  37  99 SE5       30.00S WCI  33
TAHOKA 3NNE      N/A     38  38  99 SE10      30.00S WCI  31
WOLFFORTH 6SSW   N/A     38  37  99 SE7       30.02R WCI  32
$$

TXZ031-032-036>038-042>044-311600-
TEXAS TECH WEST TEXAS MESONET/ROLLING PLAINS

CITY           SKY/WX    TMP DP  RH WIND       PRES   REMARKS
ASPERMONT 3NE  LGT RAIN  42  41  97 E3        30.09S
FLUVANNA 3WNW  LGT RAIN  39  38  96 E7        30.02F WCI  34
GRAHAM 5SSW    LGT RAIN  38  37  97 E10       30.01F WCI  30
GUTHRIE 10WSW    N/A     39  38  96 E3        30.07F
HASKELL 1NW    LGT RAIN  43  39  86 SE6       30.09R
JAYTON 1SSE    LGT RAIN  40  39  98 E5        30.07F
KNOX CITY 3NW  LGT RAIN  43  39  87 E2        30.11S
LK A HENRY 1NW   N/A     40  39  97 E6        30.03F
NORTHFIELD 1S    N/A     38  38  99 E8        30.06F WCI  32
ODELL 4ENE     LGT RAIN  40  38  93 E8        30.14S WCI  35
PADUCAH 10SW     N/A     39  38  96 E8        30.07F WCI  34
POST 1NE         N/A     38  38  97 E5        30.03F WCI  35
RRING SPRGS 3N   N/A     37  37  99 SE8       30.04F WCI  31
SEYMOUR 3NW    LGT RAIN  42  39  88 E7        30.12S
SPUR 1W          N/A     38  37  96 E9        30.04F WCI  32
WEINERT 2NNE     N/A     43  40  89 E5        30.10F
WHITE RVR 6NE  LGT RAIN  37  37  97 E12       30.03S WCI  30
$$

TXZ052-054-060>062-072-078-127-140-154-169-311600-
TEXAS TECH WEST TEXAS MESONET/PERMIAN BASIN/
CONCHO VALLEY/BIG COUNTRY/EDWARDS PLATEAU

CITY           SKY/WX    TMP DP  RH WIND       PRES   REMARKS
COYANOSA 2N      N/A     46  46  98 SE1       29.98S
JUNCTION 1SSW    N/A     48  45  90 SE6       30.08F
MERTZON 3NNE     N/A     47  46  96 SE2       30.06F
SAN ANGELO 7NW LGT RAIN  46  44  93 NE3       30.07F
STRLNG CT 4WSW   N/A     44  43  98 E6        30.05F
ST LAWRNCE 5SW   N/A     45  44  99 SE14      30.01F
SWEETWATR 11SW   N/A     41  41  97 SE10      30.06F
WALL 1E        LGT RAIN  47  44  88 CALM      30.07R
$$

TXZ055-058-074-075-080-082-311600-
TEXAS TECH WEST TEXAS MESONET/FAR WEST/SOUTHWEST MOUNTAINS/TRANS PECOS

CITY           SKY/WX    TMP DP  RH WIND       PRES   REMARKS
PRSMN GAP BBNP   N/A     46  46  99 NE13      29.98S
GUADLPE MTN NP   N/A     41  40  97 S6        29.96S
$$



USA.gov is the U.S. government's official web portal to all federal, state and local government web resources and services.